Time,TemperatureF,DewpointF,PressureIn,WindDirection,WindDirectionDegrees,WindSpeedMPH,WindSpeedGustMPH,Humidity,HourlyPrecipIn,Conditions,Clouds,dailyrainin,SoftwareType,DateUTC
2013-05-27 00:02:00,61.0,41.0,-100.00,South,170,2.0,13.0,47,-99.99,,,-99.99,,2013-05-27 00:02:00,
2013-05-27 00:11:00,62.0,42.0,-100.00,SSE,160,5.0,6.0,48,-99.99,,,-99.99,,2013-05-27 00:11:00,
2013-05-27 00:21:00,63.0,44.0,-100.00,SE,125,7.0,10.0,49,-99.99,,,-99.99,,2013-05-27 00:21:00,
2013-05-27 00:31:00,62.0,42.0,-100.00,ESE,120,7.0,11.0,48,-99.99,,,-99.99,,2013-05-27 00:31:00,
2013-05-27 00:41:00,63.0,41.0,-100.00,East,95,2.0,7.0,44,-99.99,,,-99.99,,2013-05-27 00:41:00,
2013-05-27 00:52:00,64.0,40.0,-100.00,WNW,285,1.0,4.0,41,-99.99,,,-99.99,,2013-05-27 00:52:00,
2013-05-27 01:01:00,65.0,40.0,-100.00,NW,310,2.0,3.0,39,-99.99,,,-99.99,,2013-05-27 01:01:00,
2013-05-27 01:11:00,64.0,40.0,-100.00,North,350,2.0,3.0,41,-99.99,,,-99.99,,2013-05-27 01:11:00,
2013-05-27 01:21:00,64.0,42.0,-100.00,SE,130,6.0,6.0,43,-99.99,,,-99.99,,2013-05-27 01:21:00,
2013-05-27 01:31:00,63.0,41.0,-100.00,SE,130,6.0,9.0,44,-99.99,,,-99.99,,2013-05-27 01:31:00,
2013-05-27 01:42:00,63.0,40.0,-100.00,SW,220,0.0,6.0,43,-99.99,,,-99.99,,2013-05-27 01:42:00,
2013-05-27 01:52:00,62.0,41.0,-100.00,North,0,6.0,12.0,46,-99.99,,,-99.99,,2013-05-27 01:52:00,
2013-05-27 02:01:00,62.0,41.0,-100.00,North,5,6.0,7.0,47,-99.99,,,-99.99,,2013-05-27 02:01:00,
2013-05-27 02:11:00,62.0,40.0,-100.00,North,0,14.0,16.0,44,-99.99,,,-99.99,,2013-05-27 02:11:00,
2013-05-27 02:21:00,62.0,39.0,-100.00,North,0,12.0,18.0,43,-99.99,,,-99.99,,2013-05-27 02:21:00,
2013-05-27 02:31:00,61.0,39.0,-100.00,North,350,16.0,20.0,44,-99.99,,,-99.99,,2013-05-27 02:31:00,
2013-05-27 02:42:00,60.0,39.0,-100.00,NNW,345,18.0,23.0,45,-99.99,,,-99.99,,2013-05-27 02:42:00,
2013-05-27 02:52:00,60.0,38.0,-100.00,NNW,340,19.0,24.0,44,-99.99,,,-99.99,,2013-05-27 02:52:00,
2013-05-27 03:02:00,59.0,38.0,-100.00,NNW,345,18.0,23.0,45,-99.99,,,-99.99,,2013-05-27 03:02:00,
2013-05-27 03:11:00,59.0,37.0,-100.00,NNW,345,15.0,21.0,44,-99.99,,,-99.99,,2013-05-27 03:11:00,
2013-05-27 03:21:00,58.0,37.0,-100.00,NNW,340,12.0,16.0,45,-99.99,,,-99.99,,2013-05-27 03:21:00,
2013-05-27 03:33:00,58.0,37.0,-100.00,NNW,330,11.0,15.0,44,-99.99,,,-99.99,,2013-05-27 03:33:00,
2013-05-27 03:42:00,58.0,37.0,-100.00,NNW,330,11.0,13.0,44,-99.99,,,-99.99,,2013-05-27 03:42:00,
2013-05-27 03:53:00,58.0,37.0,-100.00,NW,320,8.0,12.0,45,-99.99,,,-99.99,,2013-05-27 03:53:00,
2013-05-27 04:02:00,57.0,38.0,-100.00,West,280,5.0,10.0,47,-99.99,,,-99.99,,2013-05-27 04:02:00,
2013-05-27 04:12:00,56.0,37.0,-100.00,WNW,290,6.0,7.0,49,-99.99,,,-99.99,,2013-05-27 04:12:00,
2013-05-27 04:22:00,57.0,37.0,-100.00,NW,320,7.0,9.0,47,-99.99,,,-99.99,,2013-05-27 04:22:00,
2013-05-27 04:33:00,58.0,38.0,-100.00,NNW,330,7.0,9.0,47,-99.99,,,-99.99,,2013-05-27 04:33:00,
2013-05-27 04:42:00,58.0,38.0,-100.00,NNW,330,6.0,7.0,47,-99.99,,,-99.99,,2013-05-27 04:42:00,
2013-05-27 04:52:00,57.0,38.0,-100.00,WSW,240,2.0,7.0,48,-99.99,,,-99.99,,2013-05-27 04:52:00,
2013-05-27 05:02:00,53.0,37.0,-100.00,SSW,205,0.0,6.0,55,-99.99,,,-99.99,,2013-05-27 05:02:00,
2013-05-27 05:12:00,54.0,38.0,-100.00,SSE,165,4.0,4.0,54,-99.99,,,-99.99,,2013-05-27 05:12:00,
2013-05-27 05:21:00,53.0,38.0,-100.00,South,170,4.0,6.0,57,-99.99,,,-99.99,,2013-05-27 05:21:00,
2013-05-27 05:32:00,53.0,38.0,-100.00,SSE,150,2.0,4.0,57,-99.99,,,-99.99,,2013-05-27 05:32:00,
2013-05-27 05:41:00,53.0,38.0,-100.00,SE,130,2.0,5.0,56,-99.99,,,-99.99,,2013-05-27 05:41:00,
2013-05-27 05:52:00,53.0,38.0,-100.00,NE,55,5.0,6.0,56,-99.99,,,-99.99,,2013-05-27 05:52:00,
2013-05-27 06:01:00,53.0,38.0,-100.00,North,10,1.0,6.0,57,-99.99,,,-99.99,,2013-05-27 06:01:00,
2013-05-27 06:11:00,51.0,38.0,-100.00,NNW,345,2.0,3.0,59,-99.99,,,-99.99,,2013-05-27 06:11:00,
2013-05-27 06:21:00,50.0,38.0,-100.00,WSW,255,2.0,3.0,61,-99.99,,,-99.99,,2013-05-27 06:21:00,
2013-05-27 06:31:00,54.0,39.0,-100.00,North,0,3.0,5.0,57,-99.99,,,-99.99,,2013-05-27 06:31:00,
2013-05-27 06:41:00,54.0,39.0,-100.00,NW,320,4.0,7.0,57,-99.99,,,-99.99,,2013-05-27 06:41:00,
2013-05-27 06:52:00,54.0,39.0,-100.00,NNW,345,5.0,7.0,57,-99.99,,,-99.99,,2013-05-27 06:52:00,
2013-05-27 07:01:00,54.0,39.0,-100.00,NW,315,4.0,9.0,57,-99.99,,,-99.99,,2013-05-27 07:01:00,
2013-05-27 07:11:00,53.0,39.0,-100.00,NNW,330,5.0,6.0,59,-99.99,,,-99.99,,2013-05-27 07:11:00,
2013-05-27 07:21:00,53.0,39.0,-100.00,WNW,300,7.0,9.0,59,-99.99,,,-99.99,,2013-05-27 07:21:00,
2013-05-27 07:31:00,51.0,40.0,-100.00,West,280,7.0,9.0,64,-99.99,,,-99.99,,2013-05-27 07:31:00,
2013-05-27 07:41:00,52.0,40.0,-100.00,NW,325,10.0,12.0,62,-99.99,,,-99.99,,2013-05-27 07:41:00,
2013-05-27 07:52:00,51.0,40.0,-100.00,NW,325,17.0,21.0,66,-99.99,,,-99.99,,2013-05-27 07:52:00,
2013-05-27 08:02:00,51.0,42.0,-100.00,NNW,335,15.0,20.0,70,-99.99,,,-99.99,,2013-05-27 08:02:00,
2013-05-27 08:11:00,52.0,42.0,-100.00,NNW,345,20.0,26.0,67,-99.99,,,-99.99,,2013-05-27 08:11:00,
2013-05-27 08:21:00,53.0,42.0,-100.00,North,0,22.0,29.0,67,-99.99,,,-99.99,,2013-05-27 08:21:00,
2013-05-27 08:32:00,52.0,43.0,-100.00,North,0,21.0,26.0,70,-99.99,,,-99.99,,2013-05-27 08:32:00,
2013-05-27 08:41:00,52.0,43.0,-100.00,North,0,23.0,29.0,72,-99.99,,,-99.99,,2013-05-27 08:41:00,
2013-05-27 08:51:00,52.0,43.0,-100.00,North,0,19.0,31.0,71,-99.99,,,-99.99,,2013-05-27 08:51:00,
2013-05-27 09:02:00,51.0,43.0,-100.00,North,350,14.0,22.0,72,-99.99,,,-99.99,,2013-05-27 09:02:00,
2013-05-27 09:11:00,51.0,42.0,-100.00,North,350,13.0,17.0,70,-99.99,,,-99.99,,2013-05-27 09:11:00,
2013-05-27 09:21:00,51.0,41.0,-100.00,North,350,11.0,14.0,70,-99.99,,,-99.99,,2013-05-27 09:21:00,
2013-05-27 09:33:00,50.0,42.0,-100.00,NNW,340,11.0,14.0,71,-99.99,,,-99.99,,2013-05-27 09:33:00,
2013-05-27 09:42:00,50.0,40.0,-100.00,NW,310,12.0,14.0,69,-99.99,,,-99.99,,2013-05-27 09:42:00,
2013-05-27 09:52:00,50.0,40.0,-100.00,NW,310,15.0,16.0,70,-99.99,,,-99.99,,2013-05-27 09:52:00,
2013-05-27 10:02:00,50.0,41.0,-100.00,NW,315,14.0,17.0,70,-99.99,,,-99.99,,2013-05-27 10:02:00,
2013-05-27 10:12:00,50.0,41.0,-100.00,WNW,300,10.0,17.0,70,-99.99,,,-99.99,,2013-05-27 10:12:00,
2013-05-27 10:22:00,50.0,40.0,-100.00,NW,315,7.0,16.0,67,-99.99,,,-99.99,,2013-05-27 10:22:00,
2013-05-27 10:32:00,50.0,40.0,-100.00,North,0,3.0,7.0,67,-99.99,,,-99.99,,2013-05-27 10:32:00,
2013-05-27 10:41:00,50.0,39.0,-100.00,NW,315,4.0,7.0,65,-99.99,,,-99.99,,2013-05-27 10:41:00,
2013-05-27 10:52:00,50.0,40.0,-100.00,NW,305,7.0,11.0,66,-99.99,,,-99.99,,2013-05-27 10:52:00,
2013-05-27 11:02:00,50.0,40.0,-100.00,NW,315,9.0,11.0,68,-99.99,,,-99.99,,2013-05-27 11:02:00,
2013-05-27 11:11:00,50.0,40.0,-100.00,NW,315,9.0,13.0,67,-99.99,,,-99.99,,2013-05-27 11:11:00,
2013-05-27 11:21:00,51.0,39.0,-100.00,WNW,300,6.0,21.0,64,-99.99,,,-99.99,,2013-05-27 11:21:00,
2013-05-27 11:31:00,50.0,38.0,-100.00,West,260,10.0,16.0,62,-99.99,,,-99.99,,2013-05-27 11:31:00,
2013-05-27 11:41:00,53.0,37.0,-100.00,SW,235,14.0,17.0,54,-99.99,,,-99.99,,2013-05-27 11:41:00,
2013-05-27 11:51:00,52.0,36.0,-100.00,SW,230,19.0,22.0,55,-99.99,,,-99.99,,2013-05-27 11:51:00,
2013-05-27 12:01:00,52.0,36.0,-100.00,WSW,245,15.0,23.0,54,-99.99,,,-99.99,,2013-05-27 12:01:00,
2013-05-27 12:11:00,51.0,36.0,-100.00,WSW,240,12.0,18.0,56,-99.99,,,-99.99,,2013-05-27 12:11:00,
2013-05-27 12:21:00,51.0,36.0,-100.00,West,270,4.0,17.0,56,-99.99,,,-99.99,,2013-05-27 12:21:00,
2013-05-27 12:31:00,51.0,37.0,-100.00,NW,310,11.0,12.0,58,-99.99,,,-99.99,,2013-05-27 12:31:00,
2013-05-27 12:42:00,50.0,37.0,-100.00,NNW,335,7.0,14.0,61,-99.99,,,-99.99,,2013-05-27 12:42:00,
2013-05-27 12:52:00,49.0,38.0,-100.00,WNW,290,0.0,6.0,64,-99.99,,,-99.99,,2013-05-27 12:52:00,
2013-05-27 13:01:00,49.0,38.0,-100.00,NW,310,6.0,9.0,64,-99.99,,,-99.99,,2013-05-27 13:01:00,
2013-05-27 13:11:00,49.0,38.0,-100.00,WNW,295,7.0,10.0,65,-99.99,,,-99.99,,2013-05-27 13:11:00,
2013-05-27 13:21:00,50.0,38.0,-100.00,WNW,290,11.0,14.0,62,-99.99,,,-99.99,,2013-05-27 13:21:00,
2013-05-27 13:32:00,51.0,38.0,-100.00,West,280,9.0,13.0,61,-99.99,,,-99.99,,2013-05-27 13:32:00,
2013-05-27 13:41:00,53.0,39.0,-100.00,NW,305,6.0,11.0,58,-99.99,,,-99.99,,2013-05-27 13:41:00,
2013-05-27 13:52:00,54.0,39.0,-100.00,NW,305,6.0,10.0,55,-99.99,,,-99.99,,2013-05-27 13:52:00,
2013-05-27 14:01:00,55.0,39.0,-100.00,West,275,2.0,5.0,54,-99.99,,,-99.99,,2013-05-27 14:01:00,
2013-05-27 14:11:00,54.0,38.0,-100.00,NE,35,4.0,6.0,54,-99.99,,,-99.99,,2013-05-27 14:11:00,
2013-05-27 14:21:00,55.0,38.0,-100.00,NE,40,2.0,6.0,52,-99.99,,,-99.99,,2013-05-27 14:21:00,
2013-05-27 14:31:00,56.0,38.0,-100.00,South,170,3.0,4.0,52,-99.99,,,-99.99,,2013-05-27 14:31:00,
2013-05-27 14:41:00,57.0,40.0,-100.00,NE,35,2.0,4.0,52,-99.99,,,-99.99,,2013-05-27 14:41:00,
2013-05-27 14:51:00,56.0,40.0,-100.00,NNE,15,6.0,7.0,53,-99.99,,,-99.99,,2013-05-27 14:51:00,
2013-05-27 15:01:00,57.0,40.0,-100.00,ESE,120,4.0,7.0,51,-99.99,,,-99.99,,2013-05-27 15:01:00,
2013-05-27 15:11:00,56.0,40.0,-100.00,ESE,120,12.0,14.0,54,-99.99,,,-99.99,,2013-05-27 15:11:00,
2013-05-27 15:21:00,55.0,39.0,-100.00,SE,130,15.0,17.0,53,-99.99,,,-99.99,,2013-05-27 15:21:00,
2013-05-27 15:33:00,56.0,42.0,-100.00,ESE,115,17.0,20.0,60,-99.99,,,-99.99,,2013-05-27 15:33:00,
2013-05-27 15:43:00,55.0,42.0,-100.00,ESE,115,12.0,20.0,61,-99.99,,,-99.99,,2013-05-27 15:43:00,
2013-05-27 15:53:00,56.0,42.0,-100.00,SSE,150,12.0,16.0,58,-99.99,,,-99.99,,2013-05-27 15:53:00,
2013-05-27 16:02:00,57.0,42.0,-100.00,SE,130,11.0,14.0,56,-99.99,,,-99.99,,2013-05-27 16:02:00,
2013-05-27 16:12:00,58.0,43.0,-100.00,ESE,115,12.0,17.0,58,-99.99,,,-99.99,,2013-05-27 16:12:00,
2013-05-27 16:22:00,58.0,44.0,-100.00,ESE,120,12.0,18.0,58,-99.99,,,-99.99,,2013-05-27 16:22:00,
2013-05-27 16:33:00,58.0,42.0,-100.00,SE,140,8.0,19.0,55,-99.99,,,-99.99,,2013-05-27 16:33:00,
2013-05-27 16:42:00,59.0,42.0,-100.00,SSE,160,11.0,15.0,52,-99.99,,,-99.99,,2013-05-27 16:42:00,
2013-05-27 16:52:00,59.0,42.0,-100.00,SW,220,9.0,17.0,53,-99.99,,,-99.99,,2013-05-27 16:52:00,
2013-05-27 17:02:00,55.0,40.0,-100.00,SW,235,4.0,16.0,56,-99.99,,,-99.99,,2013-05-27 17:02:00,
2013-05-27 17:11:00,54.0,42.0,-100.00,North,0,5.0,10.0,62,-99.99,,,-99.99,,2013-05-27 17:11:00,
2013-05-27 17:21:00,54.0,41.0,-100.00,NW,315,4.0,9.0,60,-99.99,,,-99.99,,2013-05-27 17:21:00,
2013-05-27 17:31:00,54.0,40.0,-100.00,NE,55,6.0,9.0,57,-99.99,,,-99.99,,2013-05-27 17:31:00,
2013-05-27 17:42:00,56.0,41.0,-100.00,NE,40,9.0,12.0,57,-99.99,,,-99.99,,2013-05-27 17:42:00,
2013-05-27 17:52:00,56.0,40.0,-100.00,NE,55,6.0,12.0,54,-99.99,,,-99.99,,2013-05-27 17:52:00,
2013-05-27 18:02:00,56.0,39.0,-100.00,NNE,25,10.0,14.0,53,-99.99,,,-99.99,,2013-05-27 18:02:00,
2013-05-27 18:11:00,56.0,36.0,-100.00,NNE,15,11.0,15.0,46,-99.99,,,-99.99,,2013-05-27 18:11:00,
2013-05-27 18:21:00,58.0,38.0,-100.00,NNE,25,16.0,18.0,47,-99.99,,,-99.99,,2013-05-27 18:21:00,
2013-05-27 18:32:00,58.0,37.0,-100.00,NNE,25,7.0,17.0,45,-99.99,,,-99.99,,2013-05-27 18:32:00,
2013-05-27 18:41:00,59.0,36.0,-100.00,NNW,340,7.0,15.0,41,-99.99,,,-99.99,,2013-05-27 18:41:00,
2013-05-27 18:52:00,58.0,35.0,-100.00,North,355,12.0,18.0,41,-99.99,,,-99.99,,2013-05-27 18:52:00,
2013-05-27 19:01:00,59.0,34.0,-100.00,NE,40,8.0,21.0,39,-99.99,,,-99.99,,2013-05-27 19:01:00,
2013-05-27 19:11:00,61.0,35.0,-100.00,WNW,295,3.0,12.0,37,-99.99,,,-99.99,,2013-05-27 19:11:00,
2013-05-27 19:21:00,61.0,31.0,-100.00,WSW,255,9.0,19.0,32,-99.99,,,-99.99,,2013-05-27 19:21:00,
2013-05-27 19:31:00,61.0,29.0,-100.00,NW,325,5.0,16.0,29,-99.99,,,-99.99,,2013-05-27 19:31:00,
2013-05-27 19:41:00,61.0,30.0,-100.00,NNW,335,9.0,14.0,30,-99.99,,,-99.99,,2013-05-27 19:41:00,
2013-05-27 19:52:00,62.0,28.0,-100.00,SW,220,9.0,18.0,27,-99.99,,,-99.99,,2013-05-27 19:52:00,
2013-05-27 20:01:00,62.0,27.0,-100.00,WNW,285,3.0,22.0,27,-99.99,,,-99.99,,2013-05-27 20:01:00,
2013-05-27 20:11:00,61.0,27.0,-100.00,West,260,14.0,21.0,27,-99.99,,,-99.99,,2013-05-27 20:11:00,
2013-05-27 20:21:00,59.0,26.0,-100.00,NNW,335,29.0,36.0,27,-99.99,,,-99.99,,2013-05-27 20:21:00,
2013-05-27 20:32:00,63.0,27.0,-100.00,NW,305,21.0,32.0,25,-99.99,,,-99.99,,2013-05-27 20:32:00,
2013-05-27 20:41:00,63.0,27.0,-100.00,WNW,300,26.0,34.0,25,-99.99,,,-99.99,,2013-05-27 20:41:00,
2013-05-27 20:52:00,63.0,27.0,-100.00,NW,315,22.0,34.0,25,-99.99,,,-99.99,,2013-05-27 20:52:00,
2013-05-27 21:01:00,62.0,26.0,-100.00,NW,320,23.0,32.0,25,-99.99,,,-99.99,,2013-05-27 21:01:00,
2013-05-27 21:11:00,62.0,26.0,-100.00,NNW,330,24.0,32.0,25,-99.99,,,-99.99,,2013-05-27 21:11:00,
2013-05-27 21:21:00,63.0,26.0,-100.00,NNW,335,22.0,31.0,25,-99.99,,,-99.99,,2013-05-27 21:21:00,
2013-05-27 21:32:00,60.0,26.0,-100.00,NNW,340,22.0,35.0,26,-99.99,,,-99.99,,2013-05-27 21:32:00,
2013-05-27 21:42:00,61.0,27.0,-100.00,NNW,340,26.0,35.0,27,-99.99,,,-99.99,,2013-05-27 21:42:00,
2013-05-27 21:53:00,61.0,27.0,-100.00,NW,325,24.0,31.0,27,-99.99,,,-99.99,,2013-05-27 21:53:00,
2013-05-27 22:02:00,60.0,26.0,-100.00,NNW,335,24.0,34.0,27,-99.99,,,-99.99,,2013-05-27 22:02:00,
2013-05-27 22:12:00,61.0,26.0,-100.00,NNW,335,23.0,32.0,25,-99.99,,,-99.99,,2013-05-27 22:12:00,
2013-05-27 22:22:00,60.0,24.0,-100.00,NW,320,22.0,36.0,25,-99.99,,,-99.99,,2013-05-27 22:22:00,
2013-05-27 22:32:00,62.0,25.0,-100.00,NW,325,22.0,32.0,25,-99.99,,,-99.99,,2013-05-27 22:32:00,
2013-05-27 22:42:00,64.0,27.0,-100.00,NW,320,23.0,30.0,24,-99.99,,,-99.99,,2013-05-27 22:42:00,
2013-05-27 22:52:00,63.0,26.0,-100.00,NW,320,22.0,34.0,24,-99.99,,,-99.99,,2013-05-27 22:52:00,
2013-05-27 23:02:00,63.0,26.0,-100.00,NW,320,22.0,34.0,24,-99.99,,,-99.99,,2013-05-27 23:02:00,
2013-05-27 23:11:00,63.0,27.0,-100.00,NW,325,19.0,27.0,25,-99.99,,,-99.99,,2013-05-27 23:11:00,
2013-05-27 23:22:00,62.0,27.0,-100.00,NNW,340,22.0,29.0,25,-99.99,,,-99.99,,2013-05-27 23:22:00,
2013-05-27 23:32:00,63.0,27.0,-100.00,NNW,340,18.0,27.0,25,-99.99,,,-99.99,,2013-05-27 23:32:00,
2013-05-27 23:42:00,63.0,26.0,-100.00,NW,320,23.0,29.0,24,-99.99,,,-99.99,,2013-05-27 23:42:00,
2013-05-27 23:52:00,63.0,26.0,-100.00,NW,320,22.0,30.0,25,-99.99,,,-99.99,,2013-05-27 23:52:00,